Home   Weather   Porsgrunn   Past weeks

Flag for Norway Past Weather in Porsgrunn, Norway — Yesterday and Last 2 Weeks

Now
63 °F

Mild.


Feels Like: 63 °F
Forecast: 57 / 67 °F
Wind: 3 mph from South

Location: Jomfruland Fyr

Current Time: Aug 17, 2017 at 7:57:28 pm

Latest Report: Aug 17, 2017 at 7:00 pm


Visibility: N/A

Pressure: 29.87 "Hg

Humidity: 86%

Dew Point: 59 °F

Location of PorsgrunnLocation

Past Weather in Porsgrunn — Graph

°F

Porsgrunn Temperature Yesterday

Maximum temperature yesterday: 69 °F (at 2:00 pm)
Minimum temperature yesterday: 58 °F (at 7:00 am)
Average temperature yesterday: 62 °F

High & Low Weather Summary for the Past Weeks

 TemperatureHumidityPressure
High70 °F (Aug 6, 3:00 pm)95% (Aug 9, 5:00 pm)30.19 "Hg (Aug 9, 5:00 pm)
Low52 °F (Aug 14, 6:00 am)33% (Aug 13, 7:00 pm)29.35 "Hg (Aug 4, 5:00 pm)
Average61 °F77%29.84 "Hg
* Reported Aug 2 6:00 pm — Aug 17 6:00 pm, Porsgrunn. Weather by CustomWeather, © 2017

Note: Actual official high and low records may vary slightly from our data, if they occured in-between our weather recording intervals... More about our weather records

Advertising

Porsgrunn Weather History for the Previous 24 Hours

Scroll right to see more
 ConditionsComfort  
Time TempWeatherWind HumidityBarometerVisibility
6:00 pm
Thu, Aug 17
63 °FMild.2 mph86%29.90 "HgN/A
5:00 pm63 °FMild.3 mph86%29.92 "HgN/A
4:00 pm63 °FMild.3 mph78%29.95 "HgN/A
3:00 pm63 °FMild.3 mph75%29.97 "HgN/A
2:00 pm63 °FMild.3 mph73%29.98 "HgN/A
1:00 pm63 °FMild.3 mph78%30.00 "HgN/A
12:00 pm64 °FMild.5 mph75%30.01 "HgN/A
11:00 am65 °FMild.3 mph75%30.02 "HgN/A
10:00 am62 °FCool.2 mph77%30.04 "HgN/A
9:00 am60 °FCool.2 mph75%30.04 "HgN/A
8:00 am58 °FCool.No wind78%30.04 "HgN/A
7:00 am56 °FCool.No wind83%30.05 "HgN/A
6:00 am55 °FCool.3 mph85%30.05 "HgN/A
5:00 am57 °FCool.6 mph88%30.05 "HgN/A
4:00 am57 °FCool.6 mph87%30.05 "HgN/A
3:00 am58 °FCool.7 mph84%30.05 "HgN/A
2:00 am58 °FCool.6 mph84%30.05 "HgN/A
1:00 am59 °FCool.8 mph80%30.05 "HgN/A
12:00 am60 °FCool.9 mph79%30.05 "HgN/A
11:00 pm
Wed, Aug 16
62 °FCool.10 mph83%30.05 "HgN/A
10:00 pm62 °FCool.12 mph83%30.04 "HgN/A
9:00 pm63 °FMild.12 mph83%30.03 "HgN/A
8:00 pm63 °FMild.10 mph82%30.02 "HgN/A
7:00 pm64 °FMild.12 mph80%30.01 "HgN/A
Weather by CustomWeather, © 2017

See weather overviewHow to use our weather pages